sat.trackr.live / text

‹ back to catalog

ONEWEB-0623

NORAD 55164 · 2023-004AA

PAYLOAD ACTIVE UNKNOWN

§ Identity

Operator
Country
UK
Launch date
2023-01-10
Launch site
AFETR
Launch vehicle
Mass (kg)
RCS (m²)

Purposes: comms

External: N2YO · Heavens-Above · Gunter

§ Orbital elements

Epoch: 2026-09-20T00:20:36.154176Z

Period
109.29 min
Inclination
87.9199°
Eccentricity
0.0002361
Mean motion
13.17649410 rev/d
Perigee alt
1,191.9 km
Apogee alt
1,195.5 km
Semi-major
7,571.8 km
B*
1.1029e-4
RAAN
347.0465°
Arg perigee
118.4094°
Mean anomaly
241.7275°
Rev number
18,007

§ Raw data

ONEWEB-06231 55164U 23004AA  26263.01430734  .00000056  00000+0  11029-3 0  99972 55164  87.9199 347.0465 0002361 118.4094 241.7275 13.17649410180074

JSON: /api/v1/satellites/55164 · /tle

For live sub-satellite position, see the globe view (requires WebGL).

§ Visibility from observer

Set your observer location to see the next 7 days of passes ≥ 10°. The values pass through the URL so the page stays shareable.

No JS? Fill the form by hand. The geolocation button needs JavaScript.